LKPD Weather Reports


time (UTC)temp
C
wind
direction
speed
KPH
gust
KPH
rain 1hr
cm
rain 24hr
cm
rain mn
cm
humidity
%
barometer
mb
20260507210220 12 260 14.5 0.0 0.00 0.00 0.00 81 1015.0
20260507203209 12 270 14.5 0.0 0.00 0.00 0.00 76 1014.0
20260507201944 13 270 14.5 0.0 0.00 0.00 0.00 71
20260507200227 12 270 12.9 0.0 0.00 0.00 0.00 76 1014.0
20260507193210 13 280 9.7 0.0 0.00 0.00 0.00 71 1014.0
20260507192045 13 290 11.3 0.0 0.00 0.00 0.00 67
20260507190211 13 290 11.3 0.0 0.00 0.00 0.00 67 1014.0
20260507183217 15 300 12.9 0.0 0.00 0.00 0.00 62 1013.0
20260507181941 15 300 19.3 0.0 0.00 0.00 0.00 62
20260507180218 15 300 20.9 0.0 0.00 0.00 0.00 62 1013.0
20260507173217 17 290 16.1 0.0 0.00 0.00 0.00 51 1012.0
20260507171942 17 280 22.5 0.0 0.00 0.00 0.00 45
20260507170218 17 280 24.1 0.0 0.00 0.00 0.00 45 1012.0
20260507163216 18 270 24.1 0.0 0.00 0.00 0.00 42 1011.0
20260507162243 18 270 25.7 0.0 0.00 0.00 0.00 39
20260507160213 18 260 24.1 0.0 0.00 0.00 0.00 39 1011.0
20260507153216 18 250 22.5 0.0 0.00 0.00 0.00 42 1012.0
20260507151941 18 260 29.0 0.0 0.00 0.00 0.00 42
20260507150219 18 260 27.4 0.0 0.00 0.00 0.00 42 1011.0
20260507143216 17 280 19.3 0.0 0.00 0.00 0.00 52 1011.0
20260507141943 20 270 25.7 0.0 0.00 0.00 0.00 42
20260507140219 20 270 22.5 0.0 0.00 0.00 0.00 45 1011.0
20260507133217 18 270 25.7 0.0 0.00 0.00 0.00 45 1012.0
20260507132045 18 270 22.5 0.0 0.00 0.00 0.00 42
20260507123217 18 270 16.1 0.0 0.00 0.00 0.00 45 1011.0
20260507121942 18 240 22.5 0.0 0.00 0.00 0.00 45
20260507120219 18 240 20.9 0.0 0.00 0.00 0.00 45 1011.0
20260507113216 18 250 20.9 0.0 0.00 0.00 0.00 45 1011.0
20260507111959 18 230 22.5 0.0 0.00 0.00 0.00 48
20260507110220 18 220 22.5 0.0 0.00 0.00 0.00 45 1011.0
20260507103217 18 230 14.5 0.0 0.00 0.00 0.00 48 1011.0
20260507102142 17 250 19.3 0.0 0.00 0.00 0.00 52
20260507100218 17 250 19.3 0.0 0.00 0.00 0.00 59 1011.0
20260507093216 17 250 16.1 0.0 0.00 0.00 0.00 59 1011.0
20260507091943 17 230 19.3 0.0 0.00 0.00 0.00 59
20260507090219 17 230 19.3 0.0 0.00 0.00 0.00 59 1011.0
20260507083217 16 240 19.3 0.0 0.00 0.00 0.00 63 1010.0
20260507081942 16 250 14.5 0.0 0.00 0.00 0.00 63
20260507080218 16 240 16.1 0.0 0.00 0.00 0.00 63 1011.0
20260507073209 16 240 24.1 0.0 0.00 0.00 0.00 67 1010.0
20260507071942 16 240 22.5 0.0 0.00 0.00 0.00 67
20260507070221 16 240 22.5 0.0 0.00 0.00 0.00 67 1010.0
20260507063217 13 240 22.5 0.0 0.00 0.00 0.00 76 1010.0
20260507061942 13 240 22.5 0.0 0.00 0.00 0.00 76
20260507060219 13 240 20.9 0.0 0.00 0.00 0.00 76 1009.0
20260507053210 13 230 16.1 0.0 0.00 0.00 0.00 76 1009.0
20260507051942 12 250 14.5 0.0 0.00 0.00 0.00 82
20260507050220 12 230 12.9 0.0 0.00 0.00 0.00 87 1009.0
20260507043210 12 240 12.9 0.0 0.00 0.00 0.00 87 1008.0
20260507042146 12 240 14.5 0.0 0.00 0.00 0.00 87
20260507040217 12 240 14.5 0.0 0.00 0.00 0.00 87 1008.0
20260507033210 12 0 1.6 0.0 0.00 0.00 0.00 93 1008.0
20260507031942 12 0 0.0 0.0 0.00 0.00 0.00 93
20260507030224 12 0 0.0 0.0 0.00 0.00 0.00 93 1008.0
20260507023209 11 270 11.3 0.0 0.00 0.00 0.00 100 1008.0
20260507021941 12 270 11.3 0.0 0.00 0.00 0.00 93
20260507020224 11 270 11.3 0.0 0.00 0.00 0.00 93 1008.0
20260507013209 12 200 4.8 0.0 0.00 0.00 0.00 93 1007.0
20260507012041 12 210 8.0 0.0 0.00 0.00 0.00 93
20260507010226 12 220 8.0 0.0 0.00 0.00 0.00 93 1007.0
20260507003209 12 0 8.0 0.0 0.00 0.00 0.00 93 1006.0
20260507001942 12 220 8.0 0.0 0.00 0.00 0.00 93
20260507000219 12 270 9.7 0.0 0.00 0.00 0.00 93 1007.0
20260506233210 13 20 8.0 0.0 0.00 0.00 0.00 87 1006.0
20260506231942 13 350 8.0 0.0 0.00 0.00 0.00 87
20260506230225 13 330 8.0 0.0 0.00 0.00 0.00 82 1006.0
20260506223209 13 280 24.1 0.0 0.00 0.00 0.00 87 1006.0
20260506222142 13 270 29.0 0.0 0.00 0.00 0.00 87
20260506220224 12 0 3.2 0.0 0.00 0.00 0.00 87 1005.0
20260506214304 12 280 9.7 0.0 0.00 0.00 0.00 87 1006.0
20260506213210 12 310 9.7 0.0 0.00 0.00 0.00 87 1005.0
20260506212012 12 310 4.8 0.0 0.00 0.00 0.00 87 1005.0
20260506211942 12 310 11.3 0.0 0.00 0.00 0.00 87